Flag for Austria Weather past 2 weeks in Kapfenberg, Styria, Austria

Now
59 °F

Broken clouds.


Feels Like: 57 °F
Forecast: 43 / 64 °F
Wind: 10 mph from East

Location: Zeltweg

Current Time: May 24, 2015 at 7:15:15 PM

Latest Report: May 24, 2015 at 6:50 PM


Visibility: 25 mi

Pressure: 30.01 "Hg

Humidity: 55%

Dew point: 43 °F

Location of KapfenbergLocation

Historic Weather in Kapfenberg — Graph

°F

Kapfenberg temperature yesterday

Maximum temperature yesterday: 48 °F (at 11:50 AM)
Minimum temperature yesterday: 45 °F (at 5:50 AM)
Average temperature yesterday: 47 °F

Past Weeks' High & Low Weather Summary

 TemperatureHumidityPressure
High81 °F (May 13, 2:20 PM)100% (May 11, 4:50 AM)30.36 "Hg (May 11, 4:50 AM)
Low39 °F (May 12, 5:50 AM)23% (May 11, 2:50 PM)29.77 "Hg (May 19, 5:20 PM)
Average58 °F67%30.05 "Hg
* Reported May 9 5:50 PM — May 24 5:50 PM, Kapfenberg, Weather by CustomWeather, © 2015

Note: Actual official high and low records may vary slightly from our data, if they occured in-between our weather recording intervals... More about our weather records

Advertising

Kapfenberg weather history for previous 24 hours

 ConditionsComfort  
Time TempWeatherWind HumidityBarometerVisibility
5:50 PM
Sun, May 24
59 °FBroken clouds.9 mph55%30.01 "Hg25 mi
4:50 PM61 °FPartly sunny.6 mph55%30.01 "Hg25 mi
3:50 PM59 °FPartly sunny.2 mph59%30.01 "Hg25 mi
2:50 PM59 °FPartly sunny.3 mph63%30.04 "Hg25 mi
1:50 PM59 °FPartly sunny.3 mph59%30.04 "Hg25 mi
12:50 PM57 °FPartly sunny.3 mph63%30.04 "Hg19 mi
11:50 AM55 °FBroken clouds.No wind67%30.07 "Hg19 mi
10:50 AM52 °FMore clouds than sun.No wind77%30.07 "Hg16 mi
9:50 AM48 °FMore clouds than sun.No wind94%30.07 "Hg9 mi
8:50 AM46 °FPartly sunny.No wind93%30.04 "Hg7 mi
7:50 AM45 °FLow clouds.2 mph100%30.04 "Hg6 mi
6:50 AM45 °FMore clouds than sun.1 mph93%30.04 "Hg4 mi
5:50 AM45 °FFog.2 mph93%30.04 "Hg3 mi
10:50 PM
Sat, May 23
46 °FPartly cloudy.1 mph93%30.01 "Hg9 mi
9:50 PM46 °FPartly cloudy.3 mph93%30.01 "Hg9 mi
8:50 PM46 °FBroken clouds.2 mph93%30.01 "Hg9 mi
7:50 PM48 °FLight rain. Broken clouds.2 mph87%29.98 "Hg7 mi
Weather by CustomWeather, © 2015

See weather overviewHow to use our weather pages